Comet 82P/Gehrels 3 is at perihelion on the 12th January, 2010. (3.633 AU) Ephemeris Date TT R. A. (2000) Decl. Delta r Elong. Phase mag 2010 01 09 07 00.89 +21 35.4 2.652 3.633 175.5 1.2 18.3 2010 01 14 06 57.29 +21 39.9 2.661 3.633 169.7 2.8 18.3 2010 01 19 06 53.84 +21 44.1 2.678 3.633 163.8 4.3 18.3 2010 01...
|
|
|
|
|
|
Comet C/2008 J6 (Hill)
(Preview)
|
Solar System
|
0
|
2630
|
|
|
Comet C/2008 J6 (Hill) was discovered on May 14, 2008 by R.E. Hill (Catalina Sky Survey). The comet was confirmed by J.C. Pelle et N. Teamo (Tiki Observatory), by Y. Ikari (Moriyama), E. Guido and G. Sostero (RAS Observatory, Mayhill), and by J.E. McGaha (Sabino Canyon Observatory, Tucson). The pre...
|
|
|
|
|
|
Comet P/1997 V1 (Larsen)
(Preview)
|
Solar System
|
0
|
2477
|
|
|
Comet P/1997 V1 (Larsen) was recovered by Jim V. Scotti using the Spacewatch telescope at Kitt Peak on June...
|
|
|
|
|
|
Comet C/2008 L3 (Hill)
(Preview)
|
Solar System
|
0
|
2195
|
|
|
Rik E. Hill (Catalina Sky Survey) has announced the discovery of a new magnitude 17.5 comet on June 13, 2008. The orbital elements of the comet C/2008 L3 (Hill) indicate a perihelion passage on April 20, 2008 at a distance of 2 AU from the Sun. MPEC 2008-L56 Ephemerides
|
|
|
|
|
|
Comet C/2008 L2 (Hill)
(Preview)
|
Solar System
|
0
|
2204
|
|
|
Rik E. Hill (Catalina Sky Survey) has announced the discovery of a new magnitude 18.5 comet on June 12, 2008. The preliminary orbital elements of comet C/2008 L2 (Hill) indicate a perihelion passage on July 27, 2008 at a distance of 2.5 AU from the Sun. MPEC 2008-L55 Ephemerides
|
|
|
|
|
|
Comet 2008 N1 (Holmes)
(Preview)
|
Solar System
|
2
|
4586
|
|
|
[url=http://www.cfa.harvard.edu/iauc/08900/08959.htm...
|
|
|
|
|
|
Comet 2008 FK75 (Lemmon-Siding Spring)
(Preview)
|
Solar System
|
1
|
2662
|
|
|
Comet 2008 FK75 (Lemmon-Siding Spring) was discovered on July 1, 2008 by the Mount Lemmon Survey, and catalogued as an asteroid under the designation of 2008 FK75. The object was also independently discovered on July 1, 2007 and identified as a comet by J. Young and Mr. Hicks (Table Mountain Observa...
|
|
|
|
|
|
Comet P/2008 Q2 (Ory)
(Preview)
|
Solar System
|
4
|
2799
|
|
|
Comet P/2008 Q2 (Ory) was discovered by Michel Ory (Switzerland) on CCD images obtained with the Bernard Comte 0.61m f/3.9 telescope in Vicques. The preliminary orbital elements of the comet indicate a perihelion passage on the 23rd October, 2008, at a distance of 1.3 AU from the Sun, and a 5.96...
|
|
|
|
|
|
COMET C/2008 O1 (SOHO)
(Preview)
|
Solar System
|
0
|
2115
|
|
|
IAUC 8962 (2008 Aug. 1)
|
|
|
|
|
|
Comet P/2008 R5 (LINEAR-NEAT)
(Preview)
|
Solar System
|
5
|
5929
|
|
|
Comet P/2001 TU80 = Comet 2008 R5 (LINEAR-NEAT) The comet P/2001 TU80 was discovered by the NEAT program on November 16, 2001. The comet was recovered on the 8th September, 2008 by J.V. Scotti (Spacewatch II). The comet had an encounter (0.0815 AU) with the planet Jupiter in April 1985 which changed t...
|
|
|
|
|
|
Comet P/2008 R4 (Korlevic)
(Preview)
|
Solar System
|
0
|
2442
|
|
|
Comet P/1999 WJ7 = Comet P/2008 R4 (Korlevic) The magnitude 17.9 comet P/1999 WJ7 was discovered on the 28th November, 1999 by Korado Korlevic (Visnjan). Comet P/1999 WJ7 was recovered by H.T. Bressi and J.V. Scotti on September 9, 2008 with the 0.9-m f/3 Steward Observatory, Kitt Peak, telesco...
|
|
|
|
|
|
Comet P/2008 R2 (Scotti)
(Preview)
|
Solar System
|
0
|
2640
|
|
|
The comet was first discovered by J.V. Scotti (Lunar and Planetary Laboratory) in December 14, 2001 and named comet P/2001 X1 (Scotti). The comet was identified on images taken by the MT. Lemmon survey dating from September 13, 2007 and October 8, 2007. J.V. Scotti (Spacewatch, Kitt Peak) recovere...
|
|
|
|
|
|
Comet 2P Encke
(Preview)
|
Solar System
|
9
|
6350
|
|
|
Comet 2P Encke was first discovered on the 17th January, 1786, by Pierre Méchain (Paris, France). The comet has one of the shortest periods (3.3 years) of any known comet. The comet will make a close pass (0.48 AU) of the Earth on the 17th October 2013. The Taurid meteor showers are associated with the c...
|
|
|
|
|
|
Comet Shoemaker-Levy 9
(
1 2
)
(Preview)
|
Videos
|
13
|
8775
|
|
|
Cosmic Impact: Comet Shoemaker-Levy 9 crashes into Jupiter Click to Play | View Details
|
|
|
|
|
|
Comet 94P/Russell
(Preview)
|
Solar System
|
4
|
3275
|
|
|
Comet 94P/Russell makes its closest approach to the Earth (1.275 AU) on the 23rd February, 2010. Ephemeris Date TT R. A. (2000) Decl. Delta r Elong. Phase mag 2010 02 03 10 37.12 +19 44.1 1.328 2.272 158.0 9.3 15.0 2010 02 08 10 34.60 +20 13.8 1.305 2.266 162.8 7.4 14.9 2010 02 13 10 31.60 +20 42.8 1.289 2.26...
|
|
|
|
|
|
A Comet's Tale
(Preview)
|
Audio Visual
|
0
|
2286
|
|
|
Documentary about comets. Although believed to be gods by many ancient civilisations, who saw them as bringers of life or harbingers of doom, to Isaac Newton they were the key to unlocking the secrets of gravity. Hundreds of years later, a new breed of space mission can show what comets are really mad...
|
|
|
|
|
|
Comet 195P/Hill
(Preview)
|
Solar System
|
0
|
2240
|
|
|
Comet 195P/Hill makes its closest approach to the Earth (4.018 AU) on the 24th March, 2010. See more
|
|
|
|
|
|
NEO A
(Preview)
|
Astronomy News
|
9
|
6945
|
|
|
Ephemeris Date UT R.A. (J2000) Decl. Elong. V Motion h "/min P.A. 2010 03 26 15 23 24 43.7 +32 15 03 32.8 11.6 5.94 086.3 2010 03 26 16 23 25 11.8 +32 15 26 32.7 11.6 5.96 086.4 2010 03 26 17 23 25 40.0 +32 15 48 32.7 11.6 5.98 086.5 2010 03 26 18 23 26 08.3 +32 16 10 32.7 11.6 6.00 086.6 2010 03 26 19 23 26 36.6 +32 16...
|
|
|
|
|
|
Comet C/2010 G1 (BOATTINI)
(Preview)
|
Solar System
|
9
|
3091
|
|
|
Orbital elements: C/2010 G1 (Boattini) T 2010 Apr. 6.688 TT MPC q 1.20110 (2000.0) P Q Peri. 172.955 -0.277620 -0.253634 Node 287.856 +0.827089 +0.427570 e 1.0 Incl. 76.780 +0.488724 -0.867671 From 50 observations 2010 Apr. 5-6.[url=http://www.minorplanetcenter.org/mpec/K10/K10G27.htm...
|
|
|
|
|
|
Comet P/2010 H2
(
1 2
)
(Preview)
|
Solar System
|
16
|
12927
|
|
|
Orbital elements: P/2010 H2 T 2010 May 21.605 TT MPC q 3.07064 (2000.0) P Q n 0.129277 Peri. 144.469 -0.858634 +0.462881 a 3.87366 Node 64.548 -0.508333 -0.713687 e 0.20730 Incl. 14.115 -0.065919 -0.525730 P 7.62 From 226 observations 2010 Apr. 16-17. [url=http://www.minorplanetcenter.org/m...
|
|
|
|
|
|
Halley's Comet
(
1 2 3
)
(Preview)
|
Solar System
|
29
|
14504
|
|
|
On Christmas Day, 1758, a German amateur astronomer and farmer named Johann Georg Palitzsch did something that would have made a great Christmas gift for English astronomer Edmond Halley. Johann "recovered" Halley's Comet, meaning he was the first to observe this previously observe...
|
|
|
|
|
|
Comet C/2010 J1 (BOATTINI)
(
1 2
)
(Preview)
|
Solar System
|
10
|
5064
|
|
|
Orbital elements: C/2010 J1 (Boattini) T 2010 Jan. 31.598 TT MPC q 1.60295 (2000.0) P Q Peri. 327.002 +0.123216 -0.700108 Node 253.863 -0.675147 -0.578568 e 1.0 Incl. 132.931 -0.727320 +0.418459 From 89 observations 2010 May 6-7.[url=http://www.minorplanetcenter.org/mpec/K10/K10J32.ht...
|
|
|
|
|
|
Comet P/2009 T2 (La Sagra)
(
1 2
)
(Preview)
|
Solar System
|
11
|
5634
|
|
|
Orbital elements: P/2009 T2 (La Sagra) T 2010 Jan. 12.815 TT MPC q 1.75499 (2000.0) P Q n 0.047144 Peri. 215.448 +0.358550 -0.891533 a 7.58906 Node 215.987 +0.927652 +0.373444 e 0.76875 Incl. 28.102 +0.104422 -0.256338 P 20.9 From 30 observations 2009 Sept. 18-Oct. 13. [url=http://www.cfa.harv...
|
|
|
|
|
|
Comet 103P/Hartley 2
(
1 2 3 4 5 … 6
)
(Preview)
|
Solar System
|
59
|
25643
|
|
|
Jupiter-family comet Hartley 2, officially designated 103P/Hartley is a small periodic comet with an orbital period of 6.46 years. It was discovered by Malcolm Hartley in 1986 at the Schmidt Telescope Unit in Siding Spring, Australia. Its diameter is estimated to be 1.2 to 1.6 km. [url=http:/...
|
|
|
|
|
|
The Great Comet of 1861
(Preview)
|
Solar System
|
4
|
3456
|
|
|
The Great Comet of 1861 formally designated C/1861 J1 and 1861 II, was a comet that was visible to the naked eye for approximately 3 months. It was categorized as a Great Comet, one of eight in the 19th century. It was discovered by John Tebbutt of Windsor, New South Wales, Australia, on May 13, 1861, wit...
|
|
|
|
|
|
Comet C/2010 FB87 (WISE-GARRADD)
(Preview)
|
Solar System
|
5
|
2638
|
|
|
Orbital elements: C/2010 FB87 (WISE-Garradd) T 2010 Nov. 6.444 TT MPC q 2.84781 (2000.0) P Q Peri. 264.805 -0.301775 -0.026029 Node 89.920 +0.294852 +0.948072 e 1.0 Incl. 107.631 -0.906639 +0.316990 From 30 observations 2010 Mar. 28-Apr. 24. [url=http://www.minorplanetcenter.org/mpec/K1...
|
|
|
|
|
|
Comet 144P Kushida
(Preview)
|
Solar System
|
3
|
5493
|
|
|
The magnitude 10.7 comet 144P Kushida is moving through the constellation Taurus. Distance from Earth 0.641 AU Orbital Elements 144P/Kushida Epoch 2009 Jan. 9.0 TT = JDT 2454840.5 T 2009 Jan. 26.8601 TT MPC q 1.439021 (2000.0) P Q n 0.1296555 Peri. 216.0966 -0.2006767 -0.9774830 a 3.866122 Nod...
|
|
|
|
|
|
Great Comet of 1860
(Preview)
|
Solar System
|
0
|
3398
|
|
|
The magnitude 1.0 Great Comet of 1860, (C/1860 M1, 1860 III), was discovered in the evening twilight of the 18th June, 1860, in the constellation Auriga. Orbit of comet C/1860 M1 (Great Comet of 1860) Comet C/1860 M1 (Great Comet of 1860) is one of a large number of comets with parabolic orbits. [url=h...
|
|
|
|
|
|
Comet P/2002 FA9 = 2010 F2 (LINEAR)
(Preview)
|
Solar System
|
1
|
2387
|
|
|
Orbital elements: P/2002 FA9 = 2010 F2 (LINEAR) Epoch 2002 Mar. 27.0 TT = JDT 2452360.5 T 2002 Mar. 19.11709 TT MPC q 2.7361199 (2000.0) P Q n 0.12347802 Peri. 333.51637 -0.99720644 -0.03806503 a 3.9940143 Node 204.55866 +0.05377213 -0.96303442 e 0.3149449 Incl. 8.89533 -0.05184472 -0.26667538...
|
|
|
|
|
|
Comet C/2009 R1 (McNaught)
(
1 2 3
)
(Preview)
|
Solar System
|
28
|
9638
|
|
|
